DELTA 1 DEB, 21293

Orbit data source: Space-Track

DELTA 1 DEB, 21293 is space debris in SSO originally from a launch on Thu, 12 Jun 1975 UTC launched from the Air Force Western Test Range (AFWTR). Debris objects in space refer to the collection of defunct objects orbiting the Earth. Examples of debris include non-operational satellites, rocket bodies, and fragments generated from explosions, collisions, or faulty payload assembly.

Loading next visibility...
Identifier
21293, 1975-052AE
Orbit
SSO
Country
Flag of USUS
Related business
Manufacturer
Unknown
Mission
Spacecraft
Bus & Motor
Unknown
Mass
Unknown
Launch date (UTC)
1975-06-12 (50 years ago)
Launch vehicle
Unknown
Launch site
Air Force Western Test Range (AFWTR)
Object type
Payload
Rocket body
Debris
Shape & HBR
Unknown shape, 0.3 m
Radar Cross Section
Small (<0.1 m²)

Expand to show TLE details & history
Last TLE update: 12 hours ago

TLE from 12 hours ago
0 DELTA 1 DEB
1 21293U 75052AE  25309.17109433  .00000062  00000-0  31243-3 0  9997
2 21293  99.8805 102.3779 0272525 123.2549  53.9476 12.91674638624256
Epoch: 2025-11-05T04:06Z
TLE epoch observation values (Epoch: 2025-11-05T04:06:22.550Z)
Latitude
0.10974°
Longitude
176.15536°
Altitude
1,178.299 km
Speed
7.321 km/s
True Right ascension
18h 49m 35s
True Declination
0° 06' 33"
Sunlit
Object was in daylight at epoch
Visualization orbit readout
Latitude
Unknown
Longitude
Unknown
Altitude
Unknown
Speed
Unknown
Apparent Right ascension
Unknown
Apparent Declination
Unknown
Sunlit
N/A
Visualization observer readout
Local Sidereal Time
11:46:28
Azimuth
Unknown
Elevation
Unknown
Doppler factor
Unknown
Orbital elements
Apogee altitude
1,501.308 km
Perigee altitude
1,083.233 km
Semi-major axis
7,670.408 km
Eccentricity
0.02725
Inclination
99.8805°
RAAN
102.3779°
Arg. of periapsis
123.2549°
True anomaly
56.52315°
Mean anomaly
53.9476°
Eccentric anomaly
55.23026°
Mean motion
3.23084 °/min
Orbital period
111.43 mins
BSTAR
0.00031243
Loading maneuver chart data...
Computing Atmospheric mass density...
Loading historical data...
Loading historical data...
Loading historical data...
Loading historical data...
Loading historical data...
Loading historical data...
Loading historical data...

Documentation

Showing up to 5 results
|